Regional Weather Roundup
Issued by NWS

Home | Current Version | Previous Version | Graphics & Text | Print | Product List | Glossary On
Versions: 1 2 3 4 5 6 7 8 9 10 11 12 13 14 15 16 17 18 19 20 21 22 23 24 25 26 27 28 29 30 31 32 33 34 35 36 37 38 39 40 41 42 43 44 45 46 47 48 49 50
000
ASUS45 KABQ 312310
RWRNM
NEW MEXICO REGIONAL WEATHER ROUNDUP
NATIONAL WEATHER SERVICE ALBUQUERQUE NM
500 PM MDT MON AUG 31 2015

NOTE: "FAIR" MEANS FEW OR NO CLOUDS BELOW 12,000 FEET AGL WITH NO
       SIGNIFICANT WEATHER OR OBSTRUCTIONS TO VISION.

      THIS PRODUCT IS RELEASED AS TWO VERSIONS.  ONE VERSION NEAR
      THE TOP OF THE HOUR CONTAINING PRELIMINARY DATA FROM ALBUQUERQUE
      AND OTHER STATIONS.  A FINAL VERSION WITH ADDITIONAL DATA IS
      ISSUED ABOUT 10 MINUTES AFTER THE HOUR.

NMZ501-503-504-510>518-010000-
NORTHWEST PLATEAU/NORTHCENTRAL MOUNTAINS

CITY           SKY/WX    TMP DP  RH WIND       PRES   REMARKS
FARMINGTON     SUNNY     85  43  22 SW14      30.12S
LOS ALAMOS     MOSUNNY   77  45  31 S5        30.23S
SANTA FE       MOSUNNY   88  38  17 W13       30.13F
TAOS           PTSUNNY   82  37  20 W17G23    30.21R
ANGEL FIRE     FAIR      73  42  33 SW16      30.30S

$$
NMZ402-403-502-505>509-010000-
WESTCENTRAL MOUNTAINS/SOUTHWEST MOUNTAINS

CITY           SKY/WX    TMP DP  RH WIND       PRES   REMARKS
GALLUP         CLOUDY    79  45  29 CALM      30.20S
GRANTS         CLOUDY    76  45  33 W10       30.22R
SILVER CITY      N/A     82  46  28 NW8       30.12F

$$
NMZ407-409-411-412-010000-
SOUTHERN DESERTS

CITY           SKY/WX    TMP DP  RH WIND       PRES   REMARKS
LORDSBURG      FAIR      91  48  22 SW9       30.01F
DEMING         SUNNY     95  41  15 SW8       30.01F
LAS CRUCES     MOSUNNY   94  37  13 S8        30.03S
HOLLOMAN AFB   MOSUNNY   95  43  16 VRB7      29.97F
ALAMOGORDO     MOSUNNY   93  39  15 CALM      30.00S
T OR C         PTSUNNY   88  43  20 VRB7      30.06F

$$
NMZ519>523-010000-
CENTRAL VALLEYS/CENTRAL HIGHLANDS

CITY           SKY/WX    TMP DP  RH WIND       PRES   REMARKS
ALBUQUERQUE    PTSUNNY   87  44  22 SW17G25   30.08S THUNDER
DOUBLE EAGLE   PTSUNNY   88  46  23 W9        30.14S THUNDER
MORIARTY ARPT  MOCLDY    88  40  18 NW9       30.14F
CLINES CORNERS MOSUNNY   82  41  23 W13G23    30.19F
BELEN          FAIR      90  42  18 S21       30.08S HAZE
SOCORRO        FAIR      84  42  22 W10G16    30.07S

$$
NMZ524>526-539-540-010000-
SOUTHCENTRAL MOUNTAINS

CITY           SKY/WX    TMP DP  RH WIND       PRES   REMARKS
RUIDOSO        PTSUNNY   77  46  33 MISG      30.24S

$$
NMZ527>531-010000-
NORTHEAST HIGHLANDS/NORTHEAST PLAINS

CITY           SKY/WX    TMP DP  RH WIND       PRES   REMARKS
LAS VEGAS      MOSUNNY   80  42  25 NW8       30.18S
RATON          PTSUNNY   80  44  27 E7        30.13R
CLAYTON        PTSUNNY   91  52  26 SE16G23   30.01F

$$
NMZ532>537-010000-
EASTCENTRAL PLAINS

CITY           SKY/WX    TMP DP  RH WIND       PRES   REMARKS
TUCUMCARI      SUNNY     98  47  17 S13       29.94S
CANNON AFB     SUNNY     94  49  22 S15G28    30.00F
CLOVIS AIRPORT SUNNY     91  50  24 S16G24    30.02F

$$
NMZ028-029-538-010000-
SOUTHEAST PLAINS

CITY           SKY/WX    TMP DP  RH WIND       PRES   REMARKS
ROSWELL        SUNNY     96  47  18 S13G22    29.96F
ARTESIA        SUNNY     95  50  21 SE15      29.96F
CARLSBAD       SUNNY     96  47  18 SE12G21   29.94
HOBBS          SUNNY     90  46  22 SE9       30.02F


$$



USA.gov is the U.S. government's official web portal to all federal, state and local government web resources and services.